Regional Weather Roundup
Issued by NWS Wilmington, NC

Home | Current Version | Previous Version | Text Only | Print | Product List | Glossary On
Versions: 1 2 3 4 5 6 7 8 9 10 11 12 13 14 15 16 17 18 19 20 21 22 23 24 25 26 27 28 29 30 31 32 33 34 35 36 37 38 39 40 41 42 43 44 45 46 47 48 49 50
000
ASUS42 KILM 192110
RWRILM
RWRILM
REGIONAL HOURLY WEATHER ROUNDUP
NATIONAL WEATHER SERVICE WILMINGTON NC
400 PM EST FRI DEC 19 2014

NOTE: "FAIR" INDICATES FEW OR NO CLOUDS BELOW 12,000 FEET WITH NO
SIGNIFICANT WEATHER AND/OR OBSTRUCTIONS TO VISIBILITY.

...............WFO WILMINGTON COUNTY WARNING AREA...............

......COASTAL NC AND SC COUNTIES......

CITY           SKY/WX    TMP DP  RH WIND       PRES   REMARKS
WILMINGTON     SUNNY     58  27  30 N5        30.11S
SOUTHPORT      SUNNY     54  35  48 S3        30.12R
N MYRTLE BEACH SUNNY     55  37  50 S5        30.11S
MYRTLE BEACH   SUNNY     55  36  47 SE8       30.14R

......INLAND NC AND SC COUNTIES.......

CITY           SKY/WX    TMP DP  RH WIND       PRES   REMARKS
LUMBERTON      SUNNY     59  26  28 CALM      30.10F
ELIZABETHTOWN  SUNNY     57  27  32 CALM      30.11S
WHITEVILLE     SUNNY     57  28  32 CALM      30.11S
FLORENCE       SUNNY     59  30  33 CALM      30.11R
DARLINGTON     SUNNY     57  27  30 CALM      30.13R

....................REST OF NORTH CAROLINA......................

.........EASTERN NC.........

CITY           SKY/WX    TMP DP  RH WIND       PRES   REMARKS
CAPE HATTERAS  CLEAR     46  34  62 NE6       30.13R
JACKSONVILLE   CLEAR     52  28  40 N6        30.14R
MOREHEAD CITY  CLEAR     52  31  44 NE7       30.13R
KENANSVILLE    CLEAR     52  27  37 N3        30.13S
NEW BERN       CLEAR     53  30  41 N6        30.15R
ELIZABETH CITY CLEAR     49  28  44 N3        30.15R

.........CENTRAL NC.........

CITY           SKY/WX    TMP DP  RH WIND       PRES   REMARKS
RALEIGH DURHAM MOCLDY    50  25  37 N5        30.13S
ROCKY MOUNT    PTCLDY    49  27  42 N3        30.15R
ROANOKE RAPIDS NOT AVBL
FAYETTEVILLE   SUNNY     56  23  27 CALM      30.11S
HOFFMAN        MOSUNNY   56  26  31 N3        30.12R

.........WESTERN NC.........

CITY           SKY/WX    TMP DP  RH WIND       PRES   REMARKS
CHARLOTTE      CLOUDY    54  27  35 CALM      30.12R
GREENSBORO     PTSUNNY   51  22  31 NW7       30.10S
HICKORY        NOT AVBL
BOONE          NOT AVBL
ASHEVILLE      NOT AVBL

.....................REST OF SOUTH CAROLINA.....................

.........EASTERN SC.........

CITY           SKY/WX    TMP DP  RH WIND       PRES   REMARKS
CHARLESTON     PTSUNNY   59  45  59 SE6       30.11R
BEAUFORT MCAS  PTSUNNY   60  43  53 E6        30.09S
HILTON HEAD    MOSUNNY   57  46  67 CALM      30.11S

.........CENTRAL SC.........

CITY           SKY/WX    TMP DP  RH WIND       PRES   REMARKS
COLUMBIA       MOSUNNY   61  37  41 CALM      30.09F
ORANGEBURG     MOSUNNY   60  40  47 E3        30.09F
SUMTER SHAW    SUNNY     58  34  40 E1        30.09S

.........WESTERN SC.........

CITY           SKY/WX    TMP DP  RH WIND       PRES   REMARKS
GREENVILLE     NOT AVBL
ROCK HILL      PTSUNNY   55  30  38 N5        30.12R
ANDERSON       PTSUNNY   56  33  42 CALM      30.10S
CLEMSON        NOT AVBL
GREENWOOD      PTSUNNY   57  34  41 CALM      30.11S


...................COASTAL AND OFFSHORE REPORTS..................

................LOCAL PIERS AND NC RESERVE................


STATION/POSITION TIME  SKY/WX   TEMP    WIND        PRES    VSBY
                                AIR SEA DIR/SP/G
                 (UTC)          (F)     (DEG/KT/KT) (MB)    (MI)
JOHNY MRCER PIER 2100            54 57  130/  5/  5 1019.1R
NC RESRV MASNBRO 2000            56     120/  3     1020.0R
OCEAN CREST PIER 2100            54 55  130/  5/  6 1018.9R
SPRINGMAID  PIER 2100            54 54  120/  4/  5 1019.5F


................COASTAL AND OFFSHORE BUOYS................


STATION/POSITION TIME  SKY/WX   TEMP    WIND        PRES    VSBY
                                AIR SEA DIR/SP/G
                 (UTC)          (F)     (DEG/KT/KT) (MB)    (MI)
DIMNDSHOAL 41025 2100            48                 1020.3R
WVE H/P(F/S)=  3/ 8

CAPE LOOKOUT     2000            49      50/  9/ 11 1019.5R
ONSLOW BAY 41036 2100            52 63   10/  6/  8 1020.7R
WVE H/P(F/S)=  1/ 8 SWL H/P/D(F/S/D)=  2/ 80/ 8

5 WRITEBCH 41038 NOT AVBL
MASONBORO  41110 2100               55                N/A
WVE H/P(F/S)=  1/ 9 WND WVE H/P(F/S)=  2/ 9

WILM HARBR 41108 2100               55                N/A
WVE H/P(F/S)=  1/ 9 WND WVE H/P(F/S)=  2/ 9

27WRITEBCH 41037 2000            49 65   40/  4/  6 1020.9R
FRYING PAN 41013 2100            55 64   40/  8/ 10 1020.5R
WVE H/P(F/S)=  2/ 8 WND WVE H/P(F/S)=  2/ 4 SWL H/P/D(F/S/D)=  2/ 70/ 8

SUNST NRSH 41024 2000            56     180/  8/  8   N/A
CAPRS NRSH 41029 2000            55      60/ 12/ 14   N/A
EDISTO     41004 2100            62 69   50/  4/  6 1018.9R
WVE H/P(F/S)=  2/10 SWL H/P/D(F/S/D)=  2/10



..........OFFSHORE BUOYS BEYOND 100 NM OFFSHORE...........
.....IN A TRIANGLE---HAT TO BERMUDA TO BAHAMAS TO HAT.....


STATION/POSITION TIME  SKY/WX   TEMP    WIND        PRES    VSBY
                                AIR SEA DIR/SP/G
                 (UTC)          (F)     (DEG/KT/KT) (MB)    (MI)
150E HAT   41001 NOT AVBL
W BERMUDA  41048 1953            68 73  320/ 10/ 12 1016.4R
WVE H/P(F/S)=  6/ 9 WND WVE H/P(F/S)=  2/ 4 SWL H/P/D(F/S/D)=  7/ 20/ 9

ATLANTIC S 41049 2044            75 77  270/  8/ 10 1017.0R
WVE H/P(F/S)=  4/10 WND WVE H/P(F/S)=  2/ 3 SWL H/P/D(F/S/D)=  5/ 80/10

E BAHAMAS  41046 2037            77 80   90/  6/ 10 1016.8R
WVE H/P(F/S)=  4/11 WND WVE H/P(F/S)=  2/ 4 SWL H/P/D(F/S/D)=  3/ 70/11

NE BAHAMAS 41047 1953            74 78  320/  4/  6 1017.4
WVE H/P(F/S)=  3/11 WND WVE H/P(F/S)=  2/ 4 SWL H/P/D(F/S/D)=  3/ 60/11

120E CANVRL41010 2100            71 76  360/  2/  4 1018.3S
WVE H/P(F/S)=  2/12 SWL H/P/D(F/S/D)=  2/ 70/12


END


USA.gov is the U.S. government's official web portal to all federal, state and local government web resources and services.